Temp
-12 -12 -13 -13 -13 -13 -12 -13 -13 -12 -12 -13 -13 -14 -14 -13 -13 -13 -13 -14 -14 -14 -14 -14 -14 -14 -14 -14 -14 -14 -14 -14 -14 -14 -14 -15 -15 -15 -15 -15 -16 -17 -17 -16
-13 -13 -13 -13 -14 -14 -13 -12 -12 -12 -12 -13 -14 -13 -13 -13 -13 -13 -13 -14 -13 -13 -13 -14 -14 -14 -14 -14 -14 -14 -14 -14 -14 -15 -15 -15 -15 -15 -15 -16 -16 -16 -16 -17
-13 -14 -14 -14 -13 -14 -13 -13 -13 -13 -13 -13 -13 -13 -13 -14 -14 -14 -14 -13 -13 -13 -13 -13 -14 -14 -14 -14 -14 -14 -14 -14 -14 -14 -15 -15 -15 -15 -15 -16 -16 -16 -16 -18
-14 -14 -14 -11 -13 -14 -14 -13 -13 -13 -13 -13 -13 -14 -13 -13 -14 -14 -13 -13 -13 -13 -13 -13 -13 -13 -13 -14 -14 -14 -14 -14 -14 -14 -15 -15 -15 -16 -16 -16 -16 -18 -18 -18
-15 -14 -13 -12 -13 -14 -14 -13 -14 -14 -13 -13 -14 -14 -14 -14 -14 -15 -13 -13 -13 -13 -13 -13 -13 -13 -14 -14 -14 -15 -15 -15 -15 -15 -15 -15 -16 -16 -16 -16 -17 -18 -18 -19
-15 -15 -13 -12 -13 -14 -14 -12 -13 -13 -13 -13 -14 -14 -14 -15 -15 -14 -14 -13 -13 -13 -13 -14 -14 -14 -14 -14 -15 -15 -15 -15 -15 -15 -15 -16 -16 -16 -16 -17 -18 -19 -20 -20
-15 -15 -14 -13 -14 -15 -13 -12 -14 -14 -14 -14 -14 -14 -15 -13 -14 -14 -14 -14 -13 -13 -14 -14 -14 -14 -14 -14 -15 -15 -15 -15 -15 -15 -15 -15 -16 -17 -17 -18 -19 -20 -20 -21
-15 -14 -13 -13 -14 -13 -13 -14 -14 -15 -14 -14 -14 -14 -14 -14 -14 -14 -14 -14 -14 -14 -14 -14 -14 -14 -15 -15 -14 -15 -15 -15 -15 -15 -16 -17 -17 -18 -19 -20 -21 -21 -20 -20
-14 -14 -14 -14 -15 -15 -15 -15 -15 -14 -14 -14 -14 -14 -14 -14 -14 -15 -15 -15 -15 -14 -14 -14 -14 -15 -15 -15 -15 -15 -15 -15 -16 -16 -17 -17 -18 -19 -20 -21 -20 -21 -20 -21
-15 -14 -14 -15 -16 -15 -15 -15 -15 -15 -14 -14 -14 -15 -14 -15 -15 -15 -15 -15 -15 -15 -15 -15 -15 -15 -16 -15 -15 -15 -15 -16 -16 -16 -17 -18 -19 -20 -21 -21 -20 -21 -21 -21
-15 -14 -14 -14 -16 -15 -15 -15 -15 -15 -15 -15 -14 -14 -15 -15 -15 -15 -15 -15 -15 -15 -15 -15 -15 -15 -15 -16 -16 -16 -16 -16 -17 -17 -18 -18 -20 -21 -21 -21 -22 -22 -23 -23
-13 -14 -15 -16 -16 -15 -15 -15 -15 -15 -16 -16 -15 -15 -15 -15 -15 -15 -15 -15 -15 -15 -15 -16 -16 -16 -16 -16 -17 -17 -17 -18 -18 -19 -19 -20 -21 -21 -22 -22 -23 -24 -23 -24
-15 -15 -16 -15 -15 -16 -16 -15 -15 -16 -16 -16 -15 -16 -15 -15 -16 -15 -15 -15 -16 -16 -16 -16 -16 -16 -17 -17 -17 -18 -18 -20 -20 -21 -21 -22 -22 -22 -22 -23 -24 -25 -24 -25
-15 -15 -15 -15 -15 -15 -16 -16 -15 -16 -16 -16 -16 -16 -16 -16 -16 -16 -16 -16 -16 -16 -16 -17 -17 -17 -18 -18 -19 -19 -20 -21 -21 -21 -21 -22 -22 -22 -22 -24 -25 -25 -25 -26
-15 -15 -16 -15 -15 -15 -16 -16 -16 -16 -16 -16 -16 -16 -16 -16 -16 -16 -16 -17 -17 -17 -17 -18 -18 -18 -19 -20 -21 -21 -21 -21 -22 -22 -22 -22 -22 -23 -25 -26 -26 -25 -25 -25
-15 -16 -16 -16 -16 -15 -16 -16 -16 -17 -17 -17 -16 -16 -16 -16 -17 -17 -17 -17 -17 -18 -18 -19 -19 -20 -21 -21 -21 -21 -22 -22 -22 -22 -22 -22 -24 -25 -25 -25 -25 -25 -25 -26
-15 -15 -15 -15 -15 -16 -16 -16 -16 -17 -17 -17 -17 -16 -17 -17 -17 -17 -18 -18 -18 -19 -20 -20 -21 -21 -21 -21 -21 -22 -22 -22 -23 -23 -23 -25 -25 -25 -25 -25 -25 -25 -25 -25
-15 -15 -15 -16 -16 -16 -16 -16 -17 -17 -17 -16 -17 -17 -17 -18 -18 -18 -19 -19 -20 -20 -20 -21 -21 -21 -21 -22 -22 -22 -22 -23 -23 -24 -26 -25 -26 -25 -25 -25 -25 -25 -25 -26
-16 -16 -16 -16 -17 -17 -17 -18 -18 -17 -17 -18 -18 -18 -18 -18 -19 -19 -20 -20 -20 -21 -21 -21 -21 -22 -22 -22 -22 -23 -23 -23 -25 -26 -26 -26 -26 -26 -26 -26 -25 -25 -26 -25
-16 -16 -17 -17 -18 -18 -18 -17 -17 -17 -17 -18 -18 -18 -19 -19 -19 -20 -20 -20 -20 -21 -21 -21 -22 -22 -22 -23 -23 -23 -24 -26 -26 -26 -26 -26 -26 -26 -25 -25 -25 -25 -25 -25
-19 -19 -19 -18 -18 -18 -17 -17 -18 -18 -18 -18 -19 -19 -19 -19 -20 -20 -20 -21 -21 -21 -21 -22 -22 -22 -23 -24 -24 -24 -26 -26 -26 -26 -26 -26 -26 -25 -25 -25 -25 -25 -25 -25
-19 -19 -19 -18 -18 -17 -17 -18 -18 -19 -19 -19 -19 -19 -19 -20 -20 -21 -21 -21 -21 -21 -22 -22 -23 -24 -24 -24 -25 -27 -26 -26 -26 -26 -26 -26 -26 -26 -26 -25 -25 -25 -25 -25
-18 -18 -18 -18 -18 -19 -19 -19 -19 -19 -19 -19 -19 -20 -20 -21 -21 -21 -21 -21 -22 -22 -23 -23 -24 -25 -24 -26 -27 -27 -27 -27 -27 -27 -26 -26 -26 -26 -26 -25 -25 -25 -25 -25
-18 -18 -18 -18 -19 -19 -19 -19 -19 -19 -19 -20 -20 -21 -21 -21 -21 -21 -22 -22 -23 -23 -24 -25 -25 -25 -27 -27 -27 -27 -27 -27 -27 -26 -26 -26 -26 -26 -26 -25 -25 -25 -25 -25
-18 -19 -19 -19 -19 -19 -19 -19 -20 -20 -21 -21 -21 -21 -21 -22 -22 -22 -23 -23 -24 -25 -25 -25 -27 -28 -27 -27 -27 -27 -27 -27 -27 -27 -26 -26 -26 -26 -26 -25 -25 -25 -25 -25
-19 -19 -19 -19 -19 -19 -20 -21 -21 -21 -21 -21 -21 -22 -22 -22 -23 -23 -24 -25 -25 -27 -28 -28 -28 -28 -28 -28 -28 -28 -27 -27 -27 -26 -26 -26 -26 -26 -26 -26 -25 -25 -26 -26
-20 -20 -20 -20 -20 -20 -21 -21 -21 -21 -22 -22 -22 -22 -23 -23 -24 -25 -26 -27 -28 -28 -28 -28 -28 -28 -28 -28 -28 -28 -27 -27 -27 -26 -26 -26 -26 -26 -26 -25 -26 -26 -26 -26
Height
5749 5748 5752 5752 5749 5749 5750 5749 5748 5754 5752 5757 5757 5759 5762 5765 5767 5769 5771 5772 5772 5772 5773 5773 5771 5768 5767 5766 5764 5764 5762 5760 5757 5755 5752 5748 5744 5740 5735 5731 5725 5720 5714 5708
5736 5738 5739 5740 5740 5740 5738 5741 5743 5744 5745 5748 5749 5753 5755 5758 5761 5762 5762 5764 5763 5763 5765 5765 5764 5762 5761 5760 5758 5757 5754 5753 5750 5747 5744 5740 5735 5730 5725 5720 5715 5708 5701 5695
5724 5727 5726 5722 5731 5733 5732 5732 5736 5735 5741 5740 5742 5747 5750 5753 5752 5753 5754 5754 5755 5755 5755 5755 5756 5755 5753 5751 5749 5748 5747 5744 5742 5738 5734 5730 5725 5720 5714 5708 5703 5696 5688 5682
5712 5713 5708 5717 5724 5725 5722 5723 5725 5727 5731 5735 5737 5738 5741 5744 5744 5745 5746 5746 5746 5746 5747 5748 5748 5747 5746 5744 5743 5740 5738 5735 5732 5728 5723 5719 5713 5707 5702 5697 5690 5682 5676 5670
5696 5698 5703 5705 5712 5715 5715 5715 5718 5719 5724 5727 5729 5733 5734 5737 5737 5738 5739 5738 5738 5739 5739 5739 5738 5738 5737 5735 5733 5731 5728 5724 5720 5716 5712 5706 5701 5695 5689 5683 5677 5670 5663 5657
5686 5688 5686 5697 5703 5707 5704 5700 5709 5711 5714 5718 5722 5723 5728 5727 5728 5730 5731 5730 5732 5733 5731 5731 5730 5730 5728 5726 5724 5720 5716 5713 5709 5705 5699 5693 5688 5681 5674 5667 5661 5654 5649 5644
5673 5674 5679 5687 5694 5695 5693 5702 5701 5705 5707 5709 5713 5717 5717 5718 5719 5721 5722 5725 5725 5725 5724 5724 5723 5722 5721 5719 5716 5710 5707 5703 5698 5693 5687 5681 5675 5667 5661 5654 5648 5643 5637 5629
5663 5659 5671 5680 5682 5684 5690 5691 5693 5696 5699 5702 5704 5707 5708 5710 5712 5714 5715 5717 5718 5717 5716 5715 5714 5713 5711 5709 5705 5702 5698 5693 5687 5682 5676 5668 5660 5653 5647 5640 5636 5631 5625 5619
5655 5661 5667 5670 5671 5675 5679 5683 5686 5690 5693 5696 5699 5702 5704 5706 5708 5709 5710 5710 5709 5710 5709 5708 5707 5706 5703 5700 5696 5691 5686 5680 5674 5667 5661 5654 5646 5638 5632 5627 5626 5619 5615 5611
5647 5652 5656 5659 5664 5668 5673 5678 5679 5682 5687 5690 5692 5694 5696 5699 5701 5702 5703 5703 5702 5701 5701 5701 5699 5697 5693 5689 5684 5680 5674 5667 5660 5654 5645 5638 5631 5625 5619 5614 5608 5603 5599 5596
5639 5643 5648 5651 5657 5663 5668 5672 5672 5676 5680 5684 5686 5688 5690 5692 5693 5694 5695 5694 5694 5694 5692 5690 5688 5684 5681 5676 5670 5664 5657 5650 5644 5637 5629 5622 5616 5610 5603 5597 5592 5585 5580 5574
5630 5636 5643 5644 5648 5656 5661 5666 5668 5670 5673 5676 5680 5682 5683 5684 5684 5685 5685 5685 5685 5683 5681 5678 5674 5670 5665 5659 5654 5650 5642 5635 5628 5621 5614 5606 5599 5593 5589 5579 5570 5563 5558 5555
5622 5628 5630 5634 5639 5644 5650 5656 5660 5663 5665 5669 5671 5673 5674 5675 5676 5676 5676 5676 5674 5671 5668 5663 5659 5655 5650 5645 5639 5634 5628 5620 5613 5606 5597 5589 5581 5572 5565 5558 5555 5548 5541 5536
5610 5615 5622 5629 5633 5638 5643 5647 5651 5655 5658 5660 5662 5664 5664 5666 5667 5667 5666 5664 5661 5658 5654 5650 5644 5640 5635 5629 5624 5619 5611 5603 5597 5589 5580 5570 5562 5552 5543 5536 5531 5527 5524 5522
5604 5610 5615 5619 5624 5628 5634 5640 5643 5647 5649 5651 5652 5654 5655 5657 5657 5656 5654 5650 5647 5644 5640 5635 5630 5625 5620 5614 5609 5602 5594 5586 5576 5567 5557 5546 5537 5527 5520 5517 5515 5513 5510 5508
5594 5601 5607 5613 5618 5622 5627 5631 5634 5636 5638 5640 5643 5644 5645 5645 5644 5642 5639 5637 5634 5631 5627 5623 5616 5611 5607 5602 5595 5587 5577 5567 5557 5545 5534 5523 5514 5509 5506 5504 5502 5499 5497 5495
5583 5591 5598 5602 5608 5613 5617 5619 5622 5625 5629 5631 5634 5634 5634 5633 5631 5628 5627 5624 5620 5617 5615 5610 5604 5599 5593 5585 5578 5569 5560 5549 5536 5524 5512 5505 5502 5498 5495 5492 5490 5487 5486 5484
5575 5583 5588 5592 5598 5602 5606 5611 5614 5617 5620 5623 5624 5624 5622 5620 5618 5616 5613 5610 5607 5604 5602 5597 5591 5584 5576 5568 5559 5550 5540 5528 5517 5505 5499 5494 5490 5487 5484 5482 5479 5478 5476 5474
5568 5574 5580 5585 5590 5594 5599 5603 5607 5609 5611 5613 5612 5612 5610 5608 5606 5603 5599 5597 5596 5592 5587 5581 5575 5568 5559 5550 5541 5532 5522 5511 5499 5494 5489 5484 5481 5478 5475 5473 5471 5470 5468 5467
5562 5568 5573 5579 5585 5592 5597 5599 5601 5601 5601 5601 5601 5600 5599 5597 5594 5591 5589 5586 5584 5579 5573 5567 5560 5552 5543 5534 5526 5517 5506 5494 5490 5485 5480 5476 5472 5470 5468 5466 5464 5462 5460 5459
5558 5565 5572 5577 5582 5586 5589 5589 5590 5590 5589 5589 5588 5587 5586 5585 5583 5580 5577 5574 5570 5564 5558 5551 5542 5533 5526 5518 5509 5498 5489 5485 5480 5476 5472 5468 5465 5462 5460 5458 5456 5454 5452 5450
5558 5563 5567 5570 5573 5575 5577 5578 5578 5578 5578 5577 5577 5577 5576 5575 5572 5569 5565 5560 5555 5549 5541 5533 5524 5517 5509 5502 5491 5485 5480 5475 5471 5468 5464 5461 5458 5455 5453 5450 5448 5446 5443 5441
5552 5554 5556 5559 5562 5566 5567 5568 5569 5570 5569 5571 5570 5568 5567 5564 5560 5555 5550 5545 5538 5531 5523 5516 5509 5501 5493 5484 5480 5476 5471 5466 5464 5461 5457 5453 5450 5448 5445 5443 5440 5437 5435 5432
5544 5548 5551 5554 5556 5558 5559 5560 5561 5562 5562 5562 5560 5557 5554 5550 5546 5541 5534 5526 5518 5512 5505 5498 5491 5482 5476 5473 5470 5466 5462 5459 5456 5453 5450 5446 5442 5440 5437 5434 5432 5429 5426 5424
5538 5541 5544 5546 5548 5549 5551 5553 5553 5553 5551 5549 5547 5544 5540 5535 5531 5523 5515 5507 5500 5495 5488 5480 5474 5471 5468 5464 5461 5457 5454 5452 5449 5446 5442 5439 5435 5432 5429 5426 5423 5421 5419 5415
5531 5533 5535 5538 5541 5543 5542 5542 5544 5544 5542 5537 5534 5530 5525 5519 5511 5503 5496 5490 5483 5477 5473 5469 5466 5463 5460 5456 5453 5450 5447 5444 5441 5438 5434 5430 5428 5424 5421 5418 5416 5414 5411 5408
5526 5529 5530 5532 5534 5535 5536 5536 5535 5533 5529 5524 5518 5514 5507 5499 5492 5485 5478 5473 5470 5467 5465 5462 5458 5455 5452 5449 5446 5443 5440 5437 5433 5429 5425 5422 5419 5416 5413 5410 5408 5406 5403 5400
Wind_Speed
57 52 39 40 44 38 36 37 39 30 34 29 29 28 25 27 24 20 21 25 23 21 24 23 26 29 26 23 23 25 28 29 30 32 34 36 38 41 42 43 44 44 52 55
57 53 46 41 42 41 40 38 33 30 28 27 31 28 27 26 28 23 30 28 27 29 28 22 25 26 24 22 25 28 29 31 33 34 36 39 41 43 45 46 48 51 56 59
54 49 49 50 42 40 39 38 36 33 25 26 26 30 28 30 33 26 26 27 25 24 24 22 23 24 23 26 28 30 31 33 35 36 39 41 43 45 47 49 51 56 59 61
53 52 56 43 40 39 42 41 41 35 32 27 21 25 29 32 26 24 26 25 25 24 22 20 20 22 24 26 29 31 33 35 39 41 42 43 46 48 51 54 56 58 60 62
57 57 52 49 41 37 39 38 37 39 29 33 29 27 31 32 21 23 26 24 22 19 19 20 23 26 28 29 31 32 35 38 40 42 43 47 51 53 56 59 60 62 62 61
57 60 58 49 41 37 41 42 36 39 35 35 34 35 32 26 20 23 22 18 18 21 23 25 26 29 31 32 33 33 37 40 42 45 48 52 56 58 61 63 63 61 60 57
58 62 64 52 43 40 41 30 30 30 24 25 23 22 24 23 23 20 20 21 22 26 27 28 30 31 32 33 35 38 39 43 46 50 53 57 61 64 65 66 65 60 54 51
56 52 47 47 33 33 28 30 33 26 23 22 24 24 22 20 21 23 25 27 28 28 30 30 32 34 35 36 39 40 43 47 52 56 59 62 65 67 64 58 56 42 54 60
47 44 46 29 24 31 31 29 26 24 26 26 23 22 22 24 28 30 29 27 29 30 31 34 36 36 35 38 40 45 50 54 58 62 66 68 65 63 58 59 46 47 48 49
40 39 38 28 24 28 26 28 28 26 24 25 25 23 21 24 27 26 27 27 29 31 33 36 37 37 39 43 48 53 57 59 62 66 68 70 68 59 58 52 51 56 66 65
41 39 37 36 27 30 25 33 28 26 26 27 25 26 26 26 28 27 27 29 32 35 38 42 43 43 46 50 54 58 60 63 67 70 71 72 69 62 61 63 65 71 73 69
42 39 39 31 34 33 31 33 32 33 31 27 28 28 29 29 29 30 32 35 38 40 42 42 42 47 52 55 60 62 63 65 67 69 71 72 69 65 63 64 62 64 64 63
41 40 38 37 37 37 40 39 35 34 32 31 31 31 32 33 33 33 37 38 40 39 40 47 50 53 55 59 60 64 64 62 63 65 67 67 68 70 72 65 61 64 63 61
41 46 44 39 33 38 39 36 31 32 34 31 30 30 31 32 33 36 36 39 42 46 49 53 54 56 59 60 61 62 58 59 65 69 72 73 72 75 73 58 51 53 53 50
42 39 36 38 33 33 35 44 39 34 32 30 31 32 30 30 32 35 40 45 50 52 53 53 55 56 57 53 51 52 58 64 68 71 74 77 77 68 48 41 42 42 42 42
49 44 39 39 37 34 34 38 40 35 33 36 34 30 29 32 38 44 49 51 53 53 51 52 51 49 48 53 59 59 66 71 74 78 84 75 57 42 38 38 35 36 35 35
55 53 52 41 42 40 40 41 43 38 33 31 30 31 37 41 45 46 50 50 48 47 44 44 46 52 57 58 62 65 71 75 79 89 69 46 39 41 40 38 36 36 33 32
48 58 44 37 42 42 39 37 32 27 26 26 34 38 42 44 45 46 45 43 39 38 42 48 54 57 59 63 68 72 77 79 87 63 45 41 39 37 35 33 30 28 25 26
33 34 39 35 33 30 26 22 24 29 33 37 40 42 41 41 42 39 34 33 37 43 48 54 59 62 63 68 73 74 78 86 58 44 39 35 34 32 30 29 27 26 27 28
33 35 27 22 20 16 21 25 28 34 37 38 39 38 39 38 32 31 34 39 43 48 53 58 62 64 67 71 73 77 81 49 41 39 36 33 31 30 29 29 29 28 28 30
21 19 20 20 18 18 21 28 32 35 36 36 36 35 30 30 33 36 40 45 49 55 60 63 64 68 70 72 75 68 41 37 35 33 30 27 27 26 26 26 26 27 28 29
14 14 14 13 16 20 28 33 34 33 33 32 29 30 32 35 39 42 47 53 57 61 63 67 71 72 73 73 51 36 35 34 32 33 30 27 27 27 27 28 27 27 28 28
12 16 19 24 26 30 29 29 28 27 27 29 31 33 37 41 45 50 55 59 63 66 70 72 72 74 65 41 32 33 32 29 30 29 29 28 28 28 28 27 28 27 27 28
20 23 25 25 25 25 26 23 23 25 28 30 33 37 44 49 53 58 61 65 70 71 72 73 66 44 31 30 31 30 28 28 28 27 26 26 27 27 27 27 27 28 29 29
25 25 26 26 26 23 21 23 25 26 30 35 40 45 50 55 58 62 66 70 71 72 63 44 32 27 29 29 28 27 28 29 29 29 29 28 28 27 27 27 28 28 29 28
24 24 25 24 21 20 21 21 26 32 36 41 47 51 56 60 64 68 69 67 52 38 28 26 26 27 26 27 27 28 29 30 30 31 31 31 30 29 27 27 28 28 27 27
24 22 20 19 21 21 23 29 35 40 43 47 52 57 62 66 67 60 43 32 26 24 25 25 25 25 27 26 26 28 29 30 30 31 30 31 30 29 27 28 27 27 28 30
Wind_Direction
262 269 270 258 260 257 251 249 253 263 260 265 265 248 254 240 243 262 248 253 264 241 258 281 264 263 264 268 271 274 277 282 285 289 291 291 293 297 299 298 299 299 298 302
260 265 266 252 248 254 251 251 252 259 260 257 259 244 245 248 256 255 253 266 266 258 269 273 258 254 260 263 267 270 274 280 283 289 292 292 296 298 298 298 297 298 299 300
257 265 264 256 248 251 256 253 254 254 258 251 249 252 258 257 259 254 252 260 267 275 275 271 253 256 264 268 276 281 287 293 296 296 294 297 297 296 296 296 297 296 298 300
252 255 254 259 247 251 251 247 246 251 254 235 243 247 250 249 252 261 266 273 273 270 268 262 260 263 269 276 283 288 292 293 293 294 297 297 295 295 295 295 294 295 296 299
249 251 256 253 245 255 256 253 253 249 242 237 245 248 260 254 251 258 264 261 264 266 270 273 275 278 283 285 287 289 288 289 290 294 296 294 294 292 291 292 293 294 299 304
246 244 252 247 251 259 254 251 247 239 245 237 236 252 262 252 250 248 248 256 261 268 270 272 279 282 283 285 286 286 286 289 293 293 290 289 289 289 290 291 295 299 304 307
244 247 247 246 253 247 245 246 240 238 231 236 240 244 238 243 247 246 249 254 259 265 275 278 280 282 282 282 284 284 288 289 289 288 288 289 289 291 293 296 299 305 311 304
243 235 233 245 242 233 250 245 236 236 230 235 240 242 244 243 246 251 254 257 269 273 277 281 282 282 284 286 287 292 295 296 295 292 290 290 291 292 296 300 301 305 303 296
244 248 263 238 236 229 232 236 232 233 230 231 232 237 238 241 247 253 263 270 274 279 282 283 283 286 290 291 294 297 295 293 292 291 291 291 295 299 305 310 291 302 295 287
242 247 242 235 222 235 231 231 220 230 245 248 242 241 243 248 254 260 265 269 272 277 280 281 283 285 289 291 290 287 285 284 285 287 291 295 298 304 306 307 276 292 292 280
247 248 243 232 218 224 226 229 229 230 236 248 250 251 250 253 255 258 264 272 277 278 280 280 283 283 281 281 281 280 282 286 288 290 293 295 299 303 301 294 288 282 284 288
246 252 244 231 218 225 237 238 238 231 233 246 252 255 256 255 256 260 268 274 278 282 281 279 280 280 283 283 283 285 289 290 292 294 297 298 299 300 295 291 291 291 290 287
236 237 225 223 221 220 233 234 229 234 241 245 252 254 252 254 261 273 275 277 279 277 277 281 281 282 284 286 289 290 292 297 297 297 296 300 303 301 299 294 290 285 288 286
239 234 228 222 229 228 230 235 243 245 242 248 250 252 258 264 269 273 278 277 276 279 278 279 284 288 289 290 291 292 297 298 297 299 297 298 301 299 297 292 280 280 284 286
223 221 223 234 230 233 236 237 249 243 241 243 248 255 265 269 277 277 275 276 277 279 282 287 288 289 291 293 297 298 299 303 306 305 304 304 302 299 289 284 283 287 288 286
223 224 217 231 230 232 239 243 243 235 235 241 253 262 269 272 271 273 277 279 280 284 289 291 291 293 291 295 301 300 303 305 305 309 311 306 301 298 294 291 290 287 285 285
223 223 221 232 235 236 237 239 234 233 245 257 262 262 263 268 274 278 279 283 287 292 292 292 295 293 295 296 301 302 304 307 310 314 308 302 298 295 296 292 288 286 283 279
229 227 238 231 235 234 231 229 236 249 257 254 260 264 271 276 279 281 285 293 297 298 299 292 295 297 297 299 303 304 308 312 312 306 300 298 299 296 293 294 294 287 282 276
218 225 230 222 218 220 230 235 240 248 254 260 265 270 275 279 284 289 293 298 300 296 298 300 301 301 302 302 303 307 310 311 306 300 296 296 299 299 294 289 287 283 272 275
211 212 206 205 202 216 236 245 250 253 258 263 270 276 282 285 287 293 295 296 296 296 297 297 298 301 303 306 307 308 310 305 300 297 295 298 298 296 293 289 286 275 277 281
168 179 193 204 219 240 253 253 257 261 267 272 278 282 282 286 289 290 293 295 296 295 294 296 298 301 304 307 308 312 304 299 297 298 298 304 305 301 296 290 285 284 284 287
172 187 214 241 257 267 260 259 264 268 271 274 273 280 287 290 290 292 293 292 293 294 297 298 299 303 305 309 310 300 296 294 296 296 298 301 304 304 300 296 292 289 288 290
233 241 243 245 253 255 258 262 262 265 268 277 281 285 288 289 289 290 291 292 293 294 296 299 301 306 308 300 293 294 298 300 297 296 300 301 301 299 297 296 292 289 289 291
244 242 246 253 261 256 250 251 258 267 271 282 292 291 289 290 290 290 291 292 293 296 297 298 306 297 292 294 292 295 299 302 299 298 300 303 303 301 297 296 297 295 292 293
253 252 256 252 240 238 250 264 273 281 288 291 291 290 289 288 289 292 292 294 294 298 306 302 294 292 291 294 299 301 300 299 297 298 301 302 303 302 301 302 301 298 296 297
245 242 230 231 243 260 269 282 286 287 288 289 290 289 289 291 293 293 294 299 302 303 299 296 292 287 291 301 305 304 303 301 299 301 301 302 300 303 303 304 301 296 296 299
220 224 237 250 258 269 281 283 287 288 291 293 293 293 292 292 295 301 300 295 298 294 294 297 298 298 299 299 302 305 305 305 305 305 305 305 302 303 300 302 299 297 301 304